一网星座-0388星 (ONEWEB-0388 )

导读 | 星芒AI

ONEWE-0388 是 OneWeb 卫星星座计划中的一颗低轨通信卫星,旨在为全球提供高速互联网服务。该卫星由阿丽亚娜航天公司制造,搭载星间链路和Ka/Ku频段通信载荷,支持偏远地区的宽带接入。作为 OneWeb 计划部署的数百颗卫星之一,它运行在约 1200 公里的近地轨道,助力实现全球覆盖和低延迟通信,服务于航空、海运及地面用户。

基本信息
目录编号:
49314
目录名称:
ONEWEB-0388
国际标识:
2021-090AM
轨道中心:
EARTH
卫星名称:
一网星座-0388星
卫星全名:
一网星座-0388星 (ONEWEB-0388 )
卫星状态:
在轨 (已飞行1523 天)
发射日期:
2021-10-14 UTC
国别 :
英国 (GB)
星等 :
--
轨道信息
数据来源 国际轨道数据 AOE轨道数据
星历时间 2025-12-15T06:41:39+0800
20小时前
查看轨道信息
2025-12-15T06:00:00+0800
21小时前
查看轨道信息
半长轴 7563.913km 7563.908km
偏心率 0.0001881 0.0002073
轨道倾角 87.919° 87.919°
近地点辐角 91.381° 92.799°
升交点赤经 341.635° 341.640°
平近点角 268.754° 130.027°
近地点 1184.355km 1184.205km
远地点 1187.201km 1187.341km
周期 109.114分钟 109.114分钟
每日圈数 13.197236 13.19725
详细信息
平衡模式:
三轴稳定
覆盖范围:
全球
运营商:
一网卫星公司
运营商所在国:
英国
制造商(研发单位):
一网卫星公司
制造商所在国:
英国
使用方式:
暂无
卫星简介
OneWeb卫星网络由648颗重约125公斤的微型卫星组成,运行在1200公里的轨道上。 每颗卫星都能够提供至少每秒8千兆位的吞吐量,以使用其高吞吐量的Ku频段有效载荷为家庭和移动平台提供互联网接入。该卫星仍在工作。
2D轨道图
3D轨道图
轨道高度分析图
轨道倾角分析图
轨道综合分析图
查看轨道综合分析图